Regional Weather Roundup
Issued by NWS

Home | Current Version | Previous Version | Text Only | Print | Product List | Glossary On
Versions: 1 2 3 4 5 6 7 8 9 10 11 12 13 14 15 16 17 18 19 20 21 22 23 24 25 26 27 28 29 30 31 32 33 34 35 36 37 38 39 40 41 42 43 44 45 46 47 48 49 50
000
ASUS43 KTOP 180808
RWRKS

WEATHER ROUNDUP FOR KANSAS
NATIONAL WEATHER SERVICE GOODLAND KS
200 AM CST WED JAN 18 2017

NOTE:  "FAIR" INDICATES FEW OR NO CLOUDS BELOW 12,000 FEET WITH NO
SIGNIFICANT WEATHER AND/OR OBSTRUCTIONS TO VISIBILITY.

KSZ001>006-013>018-027>032-041>047-180900-
NORTHWEST KANSAS

CITY           SKY/WX    TMP DP  RH WIND       PRES   REMARKS
GOODLAND       CLEAR     33  30  88 SW8       30.00F
HAYS           CLEAR     30  26  85 SW7       30.10F
HILL CITY      CLEAR     34  30  85 SW8       30.08R
RUSSELL        PTCLDY    33  29  85 SW10      30.09F WCI  25
$$

KSZ061>065-074>080-084>089-180900-
SOUTHWEST KANSAS

CITY           SKY/WX    TMP DP  RH WIND       PRES   REMARKS
DODGE CITY     CLEAR     31  28  89 S6        30.09F
ELKHART          N/A     35  27  73 S10         N/A  WCI  27
GARDEN CITY    CLOUDY    30  27  88 S7        30.08F
GREAT BEND     CLOUDY    32  30  92 S8        30.11F
LIBERAL        MOCLDY    36  28  75 S9        30.10S
PRATT          CLOUDY    32  29  89 S6        30.12S
$$

KSZ066>073-081>083-090>101-180900-
SOUTHEAST KANSAS

CITY           SKY/WX    TMP DP  RH WIND       PRES   REMARKS
CHANUTE        PTCLDY    32  31  96 CALM      30.16F
COFFEYVILLE    PTCLDY    33  32  96 CALM      30.17S
HUTCHINSON     MOCLDY    32  29  88 CALM      30.13S
MEDICINE LODGE   N/A     36  31  82 CALM      30.13S
NEWTON         PTCLDY    36  31  82 W5        30.13F
PARSONS        PTCLDY    33  32  96 CALM      30.15F
WICHITA INTL   MOCLDY    35  32  88 SW7       30.13
WICHITA JABRA  MOCLDY    38  31  76 SW6       30.13F
WICHITA MCCONL MOCLDY    39  32  74 W8        30.13S
WINFIELD       PTCLDY    36  30  79 CALM      30.14F
$$

KSZ007>012-019>026-033>040-048>060-102>105-180900-
NORTHEAST KANSAS

CITY           SKY/WX    TMP DP  RH WIND       PRES   REMARKS
CONCORDIA      CLOUDY    36  30  79 SW9       30.10R
EMPORIA        PTCLDY    30  29  96 S7        30.13F
LAWRENCE       CLOUDY    27  27 100 NE3       30.17R FOG
MANHATTAN      CLOUDY    25  22  88 CALM      30.15R
MARYSVILLE     CLOUDY    28  27  93 SE3       30.11F
OLATHE IND     CLOUDY    29  29 100 S3        30.16S FOG
OLATHE EXE     FOG       31  31 100 S5        30.15F VSB 1/4
SALINA           N/A    N/A N/A N/A MISG        N/A
TOPEKA BILLARD CLOUDY    27  24  89 NW3       30.16S FOG
TOPEKA FORBES  CLOUDY    32  29  88 CALM      30.15R FOG
$$



USA.gov is the U.S. government's official web portal to all federal, state and local government web resources and services.